Location: Kolin
(50.0330°N, 15.2000°E)
Time: 16:47:21
(UTC+02:00)

Gurwin Techsat 1B - Pass Details

Date: 22 August 2022
Orbit: 811 x 813 km, 98.9° (Epoch: 20 September)

Event Time Altitude Azimuth Distance (km) Brightness Sun altitude
Rises 02:20:13 0° 27° (NNE) 3,350 13.2 -25.8°
Reaches altitude 10° 02:23:17 10° 45° (NE) 2,412 11.9 -25.6°
Maximum altitude 02:27:00 19° 89° (E) 1,855 10.7 -25.4°
Enters shadow 02:29:43 13° 125° (SE) 2,165 10.7 -25.2°
